FW8051 Weather Reports


Display with metric or nautical units.
time (UTC)temp
F
wind
direction
speed
MPH
gust
MPH
rain 1hr
in
rain 24hr
in
rain mn
in
humidity
%
barometer
mb
20260508053039 56 245 4.0 10.0 0.00 0.00 0.00 88 1012.4
20260508051541 55 307 3.0 10.0 0.00 0.00 0.00 88 1012.4
20260508050045 55 263 8.0 11.0 0.00 0.00 0.00 89 1012.3
20260508044541 55 259 5.0 10.0 0.00 0.00 0.00 89 1012.2
20260508043053 55 255 7.0 10.0 0.00 0.00 0.00 90 1012.2
20260508041546 55 272 7.0 10.0 0.00 0.00 0.00 90 1012.0
20260508040039 55 250 6.0 9.0 0.00 0.00 0.00 90 1011.9
20260508034542 55 262 5.0 9.0 0.00 0.00 0.00 91 1011.9
20260508033040 55 266 6.0 10.0 0.00 0.00 0.00 91 1011.7
20260508031539 55 259 6.0 10.0 0.00 0.00 0.00 91 1011.8
20260508030042 55 241 7.0 10.0 0.00 0.00 0.00 91 1011.9
20260508024535 55 274 8.0 11.0 0.00 0.00 0.00 91 1011.9
20260508023043 54 278 8.0 11.0 0.00 0.00 0.00 92 1011.9
20260508021544 54 257 8.0 10.0 0.00 0.00 0.00 91 1012.1
20260508020046 54 265 8.0 11.0 0.00 0.00 0.00 91 1012.1
20260508014540 54 255 7.0 10.0 0.00 0.00 0.00 91 1012.2
20260508013053 54 262 7.0 10.0 0.00 0.00 0.00 91 1012.2
20260508011544 54 245 7.0 11.0 0.00 0.00 0.00 91 1012.2
20260508010038 54 246 7.0 10.0 0.00 0.00 0.00 91 1012.2
20260508004538 54 292 6.0 10.0 0.00 0.00 0.00 91 1012.4
20260508003036 54 261 6.0 10.0 0.00 0.00 0.00 91 1012.6
20260508001601 54 267 8.0 11.0 0.00 0.00 0.00 91 1012.6
20260508000047 54 238 7.0 11.0 0.00 0.00 0.00 91 1012.8
20260507234538 54 259 7.0 10.0 0.00 0.00 0.00 91 1012.8
20260507233040 54 257 7.0 11.0 0.00 0.00 0.00 91 1013.2
20260507231537 54 274 6.0 12.0 0.00 0.00 0.00 91 1013.4
20260507230041 54 270 7.0 11.0 0.00 0.00 0.00 91 1013.7
20260507224544 54 255 8.0 11.0 0.00 0.00 0.00 90 1013.7
20260507223038 54 259 7.0 11.0 0.00 0.00 0.00 90 1013.6
20260507221537 55 246 6.0 9.0 0.00 0.00 0.00 90 1013.5
20260507220048 55 244 6.0 9.0 0.00 0.00 0.00 90 1013.6
20260507214541 55 263 6.0 10.0 0.00 0.00 0.00 89 1013.6
20260507213040 55 275 6.0 10.0 0.00 0.00 0.00 89 1013.6
20260507211538 56 257 6.0 10.0 0.00 0.00 0.00 89 1013.5
20260507210041 56 254 6.0 9.0 0.00 0.00 0.00 89 1013.6
20260507204545 56 257 5.0 9.0 0.00 0.00 0.00 88 1013.5
20260507203036 57 263 5.0 9.0 0.00 0.00 0.00 88 1013.5
20260507201542 57 281 5.0 9.0 0.00 0.00 0.00 87 1013.4
20260507200041 58 265 5.0 9.0 0.00 0.00 0.00 87 1013.5
20260507194540 58 263 3.0 7.0 0.00 0.00 0.00 86 1013.3
20260507193036 58 265 5.0 8.0 0.00 0.00 0.00 85 1013.3
20260507191550 59 260 5.0 8.0 0.00 0.00 0.00 84 1013.1
20260507190040 60 266 4.0 7.0 0.00 0.00 0.00 82 1013.1
20260507184538 62 277 2.0 6.0 0.00 0.00 0.00 81 1013.0
20260507183043 64 0 0.0 2.0 0.00 0.00 0.00 80 1013.1
20260507181541 64 0 0.0 3.0 0.00 0.00 0.00 80 1013.1
20260507180037 64 193 1.0 4.0 0.00 0.00 0.00 80 1013.2
20260507174547 64 155 3.0 8.0 0.00 0.00 0.00 80 1013.3
20260507173040 64 186 6.0 10.0 0.00 0.00 0.00 79 1013.3
20260507171539 65 143 4.0 7.0 0.00 0.00 0.00 80 1013.3
20260507170046 64 139 4.0 6.0 0.00 0.00 0.00 79 1013.4
20260507164542 64 128 3.0 6.0 0.00 0.00 0.00 79 1013.4
20260507163043 64 138 3.0 6.0 0.00 0.00 0.00 79 1013.3
20260507161541 64 134 4.0 5.0 0.00 0.00 0.00 78 1013.3
20260507160040 64 132 4.0 7.0 0.00 0.00 0.00 78 1013.5
20260507154546 64 134 5.0 8.0 0.00 0.00 0.00 78 1013.5
20260507153046 65 136 5.0 9.0 0.00 0.00 0.00 77 1013.6
20260507151535 64 138 7.0 9.0 0.00 0.00 0.00 77 1013.4
20260507150043 64 137 7.0 11.0 0.00 0.00 0.00 77 1013.6
20260507144539 65 135 8.0 11.0 0.00 0.00 0.00 77 1013.5
20260507143045 65 134 7.0 10.0 0.00 0.00 0.00 77 1013.6
20260507141537 65 135 9.0 10.0 0.00 0.00 0.00 76 1013.7
20260507140043 64 140 8.0 11.0 0.00 0.00 0.00 77 1013.9
20260507134544 65 151 7.0 11.0 0.00 0.00 0.00 76 1014.0
20260507133041 64 134 8.0 10.0 0.00 0.00 0.00 77 1014.4
20260507131553 64 155 7.0 10.0 0.00 0.00 0.00 77 1014.4
20260507130055 64 142 8.0 10.0 0.00 0.00 0.00 76 1014.4
20260507124547 63 136 8.0 11.0 0.00 0.00 0.00 78 1014.5
20260507123037 63 132 8.0 12.0 0.00 0.00 0.00 78 1014.5
20260507121543 63 119 8.0 10.0 0.00 0.00 0.00 78 1014.6
20260507120045 64 132 6.0 8.0 0.00 0.00 0.00 78 1014.5
20260507114543 64 132 5.0 8.0 0.00 0.01 0.00 78 1014.3
20260507113042 64 150 5.0 8.0 0.00 0.01 0.00 79 1014.5
20260507111537 63 148 6.0 10.0 0.00 0.01 0.00 81 1014.6
20260507110036 63 130 7.0 11.0 0.00 0.01 0.00 81 1014.6
20260507104543 63 126 9.0 13.0 0.00 0.01 0.00 81 1014.7
20260507103043 63 124 11.0 13.0 0.00 0.01 0.00 81 1014.7
20260507101540 64 134 10.0 14.0 0.00 0.01 0.00 80 1014.7
20260507100041 64 149 10.0 15.0 0.00 0.01 0.00 80 1014.8
20260507094538 63 142 13.0 17.0 0.00 0.01 0.00 79 1014.5
20260507093049 64 140 12.0 16.0 0.00 0.01 0.00 79 1014.5
20260507091549 63 135 12.0 14.0 0.00 0.01 0.00 78 1014.4
20260507090040 64 121 10.0 13.0 0.00 0.01 0.00 75 1014.1
20260507084539 64 175 5.0 9.0 0.00 0.01 0.00 74 1013.9
20260507083036 65 165 5.0 9.0 0.00 0.01 0.00 74 1013.8
20260507081544 64 100 2.0 4.0 0.00 0.01 0.00 70 1013.9
20260507080044 64 98 3.0 6.0 0.00 0.01 0.00 69 1014.0
20260507074557 64 102 3.0 5.0 0.00 0.01 0.00 68 1014.2
20260507073036 64 148 2.0 4.0 0.00 0.01 0.00 65 1014.4
20260507071543 64 76 2.0 7.0 0.00 0.01 0.00 64 1014.3
20260507070043 64 85 3.0 6.0 0.00 0.01 0.00 65 1014.3
20260507064540 64 109 7.0 10.0 0.00 0.01 0.00 65 1013.9
20260507063039 65 245 1.0 7.0 0.00 0.01 0.00 62 1013.8
20260507061538 64 236 1.0 7.0 0.00 0.01 0.00 65 1013.7
20260507060039 63 257 4.0 9.0 0.00 0.01 0.00 68 1013.7
20260507054542 62 213 0.0 4.0 0.00 0.01 0.00 70 1013.5